This demonstration page uses our WeatherBlox Daily Observations layout. Learn more.

Left ArrowRight Arrow

39.08367, -84.50855

Hourly Observations for April 20, 2019

Temp ( °F °C ) Dew Point ( °F °C ) Humidity (%) Winds ( mph kmh ) Pressure ( in mb ) Visibility ( mi km ) Precip ( " mm )
12:38 am 00:38 Cloudy with Heavy Rain 44 6.7 41 5 89 89 N 16 26 29.51 999 2 3 0.15 3.81
12:53 am 00:53 Cloudy with Heavy Rain 43 6.1 41 5 93 93 N 18 30 29.49 999 3 4 0.28 7.11
1:08 am 01:08 Cloudy with Heavy Rain 44 6.7 40 4.4 85 85 N 21 33 29.49 999 4 6 0.06 1.52
1:46 am 01:46 Cloudy with Heavy Rain 43 6.1 40 4.4 89 89 NNE 13 20 29.50 999 3 5 0.27 6.86
1:53 am 01:53 Cloudy with Heavy Rain 43 6.1 40 4.4 89 89 NNE 14 22 29.48 998 3 5 0.32 8.13
2:00 am 02:00 Cloudy with Heavy Rain 43 6.1 40 4.4 89 89 NNE 14 22 29.50 999 3 4 0.04 1.02
2:21 am 02:21 Cloudy with Heavy Rain 43 6.1 40 4.4 89 89 NNE 8 13 29.51 999 3 5 0.18 4.57
2:44 am 02:44 Cloudy with Heavy Rain 43 6.1 40 4.4 89 89 NE 8 13 29.51 999 4 6 0.30 7.62
2:53 am 02:53 Cloudy with Heavy Rain 43 6.1 40 4.4 89 89 NE 8 13 29.49 999 4 6 0.33 8.38
3:53 am 03:53 Cloudy with Rain 42 5.6 40 4.4 92 92 N 10 17 29.47 998 6 10 0.10 2.54
4:33 am 04:33 Cloudy with Heavy Rain 42 5.6 40 4.4 92 92 N 8 13 29.51 999 4 6 0.14 3.56
4:53 am 04:53 Cloudy with Heavy Rain 42 5.6 40 4.4 92 92 N 7 11 29.49 999 4 6 0.22 5.59
5:53 am 05:53 Cloudy with Rain 42 5.6 40 4.4 92 92 VRB 5 7 29.50 999 7 11 0.11 2.79
6:53 am 06:53 Cloudy with Light Rain 43 6.1 40 4.4 89 89 VRB 6 9 29.50 999 6 10 0.04 1.02
7:38 am 07:38 Cloudy with Light Rain 43 6.1 41 5 93 93 VRB 6 9 29.53 1000 3 4 0.01 0.25
7:53 am 07:53 Cloudy with Light Rain 43 6.1 41 5 93 93 VRB 5 7 29.52 1000 3 5 0.02 0.51
8:01 am 08:01 Cloudy with Light Rain 43 6.1 41 5 93 93 VRB 6 9 29.54 1000 3 4 0.00 0.03
8:36 am 08:36 Cloudy with Light Rain 44 6.7 42 5.6 93 93 VRB 6 9 29.55 1001 2 3 0.00 0.03
8:38 am 08:38 Cloudy with Light Rain 44 6.7 42 5.6 93 93 VRB 6 9 29.55 1001 2 3 0.00 0.03
8:53 am 08:53 Cloudy with Light Rain 44 6.7 42 5.6 93 93 VRB 6 9 29.55 1001 2 3 0.00 0.03
9:53 am 09:53 Cloudy with Mist and Fog 46 7.8 43 6.1 89 89 NNW 8 13 29.56 1001 2 3 0.01 0.25
10:10 am 10:10 Cloudy with Light Rain 45 7.2 43 6.1 93 93 VRB 6 9 29.58 1002 2 3 0.00 0.03
10:53 am 10:53 Cloudy with Mist and Fog 47 8.3 43 6.1 86 86 VRB 5 7 29.58 1002 3 5 0.00 0.03
11:49 am 11:49 Cloudy with Light Rain 48 9 45 7 87 87 VRB 6 9 29.63 1003 2 3 0.01 0.25
11:53 am 11:53 Cloudy with Light Rain 47 8.3 44 6.7 90 90 VRB 5 7 29.62 1003 2 3 0.01 0.25
12:14 pm 12:14 Cloudy with Light Rain 47 8.3 44 6.7 90 90 VRB 7 11 29.63 1003 3 5 0.00 0.03
12:53 pm 12:53 Cloudy with Mist and Fog 48 8.9 45 7.2 89 89 VRB 7 11 29.64 1004 4 6 0.00 0.03
1:20 pm 13:20 Cloudy with Mist and Fog 48 8.9 45 7.2 89 89 WNW 8 13 29.65 1004 6 10 0.00 0.00
1:53 pm 13:53 Cloudy 48 8.9 44 6.7 86 86 VRB 6 9 29.65 1004 7 11 0.00 0.00
2:53 pm 14:53 Cloudy with Light Rain 47 8.3 43 6.1 86 86 NW 8 13 29.67 1005 3 5 0.00 0.03
3:04 pm 15:04 Cloudy with Light Rain 46 7.8 43 6.1 89 89 NNW 10 17 29.69 1005 2 3 0.01 0.25
3:31 pm 15:31 Cloudy with Light Rain 45 7.2 41 5 86 86 VRB 7 11 29.71 1006 4 6 0.01 0.25
3:53 pm 15:53 Cloudy 45 7.2 40 4.4 83 83 WNW 6 9 29.71 1006 10 16 0.01 0.25
4:53 pm 16:53 Cloudy 45 7.2 40 4.4 83 83 VRB 7 11 29.73 1007 10 16 0.00 0.00
5:53 pm 17:53 Cloudy 46 7.8 40 4.4 79 79 NNW 9 15 29.75 1007 10 16 0.00 0.00
6:00 pm 18:00 Cloudy 46 7.8 40 4.4 79 79 VRB 6 9 29.76 1008 10 16 0.00 0.00
6:53 pm 18:53 Cloudy 45 7.2 39 3.9 80 80 W 7 11 29.78 1009 10 16 0.00 0.00
7:53 pm 19:53 Cloudy 45 7.2 39 3.9 80 80 W 8 13 29.80 1009 10 16 0.00 0.00
8:53 pm 20:53 Cloudy 44 6.7 39 3.9 83 83 W 5 7 29.83 1010 10 16 0.00 0.00
9:53 pm 21:53 Cloudy 44 6.7 39 3.9 83 83 VRB 5 7 29.87 1011 10 16 0.00 0.00
10:53 pm 22:53 Cloudy 44 6.7 39 3.9 83 83 WSW 6 9 29.88 1012 10 16 0.00 0.00
11:53 pm 23:53 Cloudy 44 6.7 39 3.9 83 83 W 7 11 29.89 1012 10 16 0.00 0.00

Powered by AerisWeather